Weather in Svisloch

Belarus     53°26′37″N   28°57′16″E
temp.,
°C
wind,
m/s
gust,
m/s
humid.,
%
clouds,
%
prec.,
mm/h
press.,
hPa
HPBL,
m
23 september, thu
thu2300:00+5nw3696100 0.5 1015847
03:00+5nnw2597100 1.5 1014796
06:00+4nnw2596100 2.0 1014680
09:00+4n1494100 2.2 1014686
12:00+5nnw1290100 0.1 1013387
15:00+6w2388100 0.3 1013660
18:00+5sw2394100 0.0 1011372
21:00+5sse4796100 0.0 1009259
24 september, fri
fri2400:00+6sse61396100 0.6 1004505
03:00+7s71498100 3.9 998552
06:00+9s71497100 7.1 992806
09:00+8w7118618 10.0 9931036
12:00+8sw41094100 0.6 993994
15:00+8wnw81293100 2.6 9941133
18:00+8wnw61493100 7.7 9951329
21:00+9wnw71491100 13.0 999880
25 september, sat
sat2500:00+8wnw71491100 0.7 1001703
03:00+8wnw61191100 0.7 1004697
06:00+8wnw41190100 0.0 1006591
09:00+8w498848 0.0 1007410
12:00+9sw4894100 0.1 1008352
15:00+9sw51297100 1.2 1007578
18:00+12w51294100 0.6 1007653
21:00+12w5139419 1.1 1009504
26 september, sun
sun2600:00+10wnw513959 0.1 1011457
03:00+10nw5119585 0.1 1013553
06:00+9nw5118911 0.0 1015496
09:00+10nw49884 0.0 1017508
12:00+11nnw577663 0.1 1018873
15:00+14nnw575932 0.1 10191398
18:00+12n5861100 0.0 1020554
21:00+10nnw387079 0.0 1022309
27 september, mon
mon2700:00+9n3777100 0.0 1023282
03:00+7n37935 0.1 1024183
06:00+5nne37978 0.0 1024155
09:00+7ne469286 0.0 1025356
12:00+10ene357381 0.0 1025863
15:00+11ne3572100 0.1 1025754
18:00+10ne2578100 0.0 1025237
21:00+9ne2477100 0.0 1026112